Вернуться в каталог

STARLINK-31391

АктивенСвязьVLEO
NORAD 59406·PAYLOAD·🇺🇸 United States

Запущен Apr 5, 2024 с Cape Canaveral Space Force Station

Loading…

Ближайшие Пролёты (ближайшие 24 часа)

TLE

СвежийSource: CelesTrak SupGP

Эпоха: Sep 15, 2026, 02:52 UTC

1 59406C 24064J   26258.11993056 -.00025680  00000+0 -93014-3 0  2587
2 59406  43.0017  66.0977 0001642 272.5974 309.3415 15.27590547    16

Отслеживайте STARLINK-31391 в реальном времени с AllMySat

Download on the App Store